Zurück zum Katalog

THORAD AGENA D DEB *

AktivLEO
NORAD 5967·DEBRIS·🇺🇸 United States

Gestartet Apr 8, 1970 von Vandenberg Space Force Base

Loading…

Nächste Überflüge (nächste 24 Stunden)

TLE

AktuellSource: Space-Track

Epoche: Sep 14, 2026, 13:41 UTC

1 05967U 70025MQ  26257.57052177  .00000337  00000-0  13564-2 0  9991
2 05967 101.6422 156.0750 0128927  68.3669  50.0286 12.93329109650007

Verfolge THORAD AGENA D DEB * in Echtzeit mit AllMySat

Download on the App Store